Location: El Álamo
(40.2307°N, 3.9945°W)
Time: 03:25:53
(UTC+00:00)

Cosmos 858 Rocket - Pass Details

Date: 19 May 2025
Orbit: 752 x 770 km, 74.1° (Epoch: 23 June)

Event Time Altitude Azimuth Distance (km) Brightness Sun altitude
Rises 20:03:07 0° 341° (NNW) 3,217 8.7 -6.5°
Reaches altitude 10° 20:05:30 10° 343° (NNW) 2,287 7.8 -6.8°
Maximum altitude 20:10:41 81° 71° (ENE) 767 4.5 -7.7°
Drops below altitude 10° 20:15:50 10° 159° (SSE) 2,267 6.4 -8.5°
Enters shadow 20:16:53 - 159° (SSE) 2,674 6.8 -8.6°
